Weather History for Wadena, MN

Change the Weather History Date:

Saturday, December 28, 2013

  Actual Average Record
Temperature  
Mean Temperature 16 °F -  
Max Temperature 30 °F 20 °F 37 °F (1962)
Min Temperature 0 °F 2 °F -33 °F (1933)
Degree Days  
Heating Degree Days 50    
Moisture  
Dew Point 21 °F    
Average Humidity 92    
Maximum Humidity 100    
Minimum Humidity 72    
Precipitation  
Precipitation 0.00 in - - ()
Sea Level Pressure  
Sea Level Pressure 29.84 in    
Wind  
Wind Speed 8 mph (NE)    
Max Wind Speed 24 mph    
Max Gust Speed 33 mph    
Visibility 5 miles    
Events Fog , Snow    
Averages and records for this station are not official NWS values.
T = Trace of Precipitation, MM = Missing Value Source: NWS Daily Summary

Daily Weather History Graph

Daily Weather History Graph

Search for Another Location

Airport:

Trip Planner

Search our weather history database for the weather conditions in past years. The results will help you decide how hot, cold, wet, or windy it might be!

Date:

Astronomy

Dec. 28, 2013 Rise Set
Actual Time 8:04 AM CST 4:41 PM CST
Civil Twilight 7:29 AM CST 5:16 PM CST
Nautical Twilight 6:50 AM CST 5:54 PM CST
Astronomical Twilight 6:14 AM CST 6:31 PM CST
Moon 3:33 AM CST (12/28) 1:39 PM CST (12/28)
Length of Visible Light 9h 46m
Length of Day
8h 37m
Waning Crescent, 19% of the Moon is Illuminated
Dec 28
Waning Crescent
Jan 1
New
Jan 7
First Quarter
Jan 15
Full
Jan 23
Last Quarter

Hourly Weather History & Observations

Time (CST) Temp. Windchill Dew Point Humidity Pressure Visibility Wind Dir Wind Speed Gust Speed Precip Events Conditions
12:14 AM 30.2 °F 25.4 °F 28.4 °F 93% 29.91 in 10.0 mi WSW 4.6 mph - N/A   Overcast
12:34 AM 30.2 °F 26.7 °F 28.4 °F 93% 29.90 in 10.0 mi WSW 3.5 mph - N/A   Overcast
12:53 AM 30.2 °F 24.3 °F 28.4 °F 93% 29.89 in 10.0 mi SW 5.8 mph - N/A   Overcast
1:11 AM 30.2 °F 26.7 °F 28.4 °F 93% 29.88 in 10.0 mi SW 3.5 mph - N/A   Overcast
1:35 AM 30.2 °F - 28.4 °F 93% 29.87 in 7.0 mi Calm Calm - N/A   Overcast
1:52 AM 30.2 °F 25.4 °F 28.4 °F 93% 29.86 in 7.0 mi South 4.6 mph - N/A   Overcast
2:15 AM 30.2 °F 24.3 °F 28.4 °F 93% 29.85 in 5.0 mi SSE 5.8 mph - N/A   Overcast
2:35 AM 30.2 °F - 28.4 °F 93% 29.84 in 2.5 mi Calm Calm - N/A   Overcast
2:53 AM 30.2 °F 25.4 °F 28.4 °F 93% 29.84 in 1.2 mi SSE 4.6 mph - N/A   Overcast
3:15 AM 30.2 °F 25.4 °F 28.4 °F 93% 29.83 in 0.8 mi SSE 4.6 mph - N/A   Overcast
3:35 AM 28.4 °F 23.3 °F 28.4 °F 100% 29.81 in 0.5 mi SE 4.6 mph - N/A Fog Light Freezing Fog
3:52 AM 28.4 °F 22.2 °F 28.4 °F 100% 29.80 in 0.5 mi SE 5.8 mph - N/A Fog Light Freezing Fog
4:14 AM 28.4 °F 23.3 °F 28.4 °F 100% 29.79 in 0.5 mi SE 4.6 mph - N/A Fog Light Freezing Fog
4:35 AM 28.4 °F 23.3 °F 28.4 °F 100% 29.78 in 0.5 mi SSE 4.6 mph - N/A Fog Light Freezing Fog
4:53 AM 28.4 °F 24.6 °F 28.4 °F 100% 29.78 in 0.5 mi SE 3.5 mph - N/A Fog Light Freezing Fog
5:14 AM 28.4 °F 23.3 °F 28.4 °F 100% 29.77 in 0.5 mi SE 4.6 mph - N/A Fog Light Freezing Fog
5:35 AM 30.2 °F 22.6 °F 28.4 °F 93% 29.76 in 0.8 mi SE 8.1 mph - N/A   Overcast
5:53 AM 30.2 °F 22.6 °F 28.4 °F 93% 29.75 in 0.8 mi SSE 8.1 mph - N/A   Overcast
6:15 AM 30.2 °F 23.4 °F 28.4 °F 93% 29.75 in 0.8 mi SSE 6.9 mph - N/A   Overcast
6:35 AM 30.2 °F 24.3 °F 28.4 °F 93% 29.74 in 0.8 mi SSE 5.8 mph - N/A   Overcast
6:52 AM 30.2 °F 24.3 °F 28.4 °F 93% 29.74 in 0.8 mi SE 5.8 mph - N/A   Overcast
7:15 AM 28.4 °F 21.2 °F 28.4 °F 100% 29.73 in 0.8 mi SSE 6.9 mph - N/A   Overcast
7:35 AM 28.4 °F 21.2 °F 28.4 °F 100% 29.72 in 1.0 mi SE 6.9 mph - N/A   Overcast
7:53 AM 28.4 °F 22.2 °F 28.4 °F 100% 29.72 in 1.0 mi SE 5.8 mph - N/A   Overcast
8:14 AM 28.4 °F 21.2 °F 28.4 °F 100% 29.71 in 0.5 mi SE 6.9 mph - N/A Fog Light Freezing Fog
8:35 AM 28.4 °F 20.4 °F 28.4 °F 100% 29.70 in 0.5 mi SE 8.1 mph - N/A Fog Light Freezing Fog
8:52 AM 28.4 °F 21.2 °F 28.4 °F 100% 29.71 in 0.5 mi SE 6.9 mph - N/A Fog Light Freezing Fog
9:14 AM 28.4 °F 22.2 °F 28.4 °F 100% 29.71 in 0.5 mi ESE 5.8 mph - N/A Fog Light Freezing Fog
9:35 AM 28.4 °F 21.2 °F 28.4 °F 100% 29.70 in 0.5 mi ESE 6.9 mph - N/A Fog Light Freezing Fog
9:53 AM 28.4 °F 21.2 °F 28.4 °F 100% 29.71 in 0.8 mi East 6.9 mph - N/A   Overcast
10:15 AM 28.4 °F 22.2 °F 28.4 °F 100% 29.71 in 1.0 mi East 5.8 mph - N/A   Overcast
10:34 AM 30.2 °F 24.3 °F 28.4 °F 93% 29.72 in 1.5 mi ESE 5.8 mph - N/A   Overcast
10:52 AM 30.2 °F 24.3 °F 28.4 °F 93% 29.71 in 1.8 mi ESE 5.8 mph - N/A   Overcast
11:14 AM 30.2 °F 25.4 °F 30.2 °F 100% 29.71 in 1.8 mi East 4.6 mph - N/A   Overcast
11:35 AM 30.2 °F 24.3 °F 30.2 °F 100% 29.70 in 1.2 mi NE 5.8 mph - N/A   Overcast
11:52 AM 30.2 °F 25.4 °F 30.2 °F 100% 29.70 in 1.5 mi NE 4.6 mph - N/A   Overcast
12:15 PM 30.2 °F 23.4 °F 30.2 °F 100% 29.69 in 1.8 mi NE 6.9 mph - N/A   Overcast
12:35 PM 30.2 °F 22.6 °F 30.2 °F 100% 29.69 in 2.0 mi NNE 8.1 mph - N/A   Overcast
12:53 PM 30.2 °F 22.6 °F 30.2 °F 100% 29.70 in 4.0 mi NE 8.1 mph - N/A   Overcast
1:15 PM 30.2 °F 22.6 °F 30.2 °F 100% 29.70 in 3.0 mi NE 8.1 mph - N/A   Overcast
1:34 PM 30.2 °F 22.6 °F 30.2 °F 100% 29.69 in 3.0 mi North 8.1 mph - N/A   Overcast
1:53 PM 30.2 °F 21.3 °F 30.2 °F 100% 29.68 in 4.0 mi NNE 10.4 mph - N/A   Overcast
2:15 PM 30.2 °F 21.3 °F 30.2 °F 100% 29.70 in 5.0 mi North 10.4 mph - N/A   Overcast
2:35 PM 30.2 °F 21.3 °F 28.4 °F 93% 29.71 in 5.0 mi North 10.4 mph 16.1 mph N/A   Overcast
2:52 PM 30.2 °F 21.3 °F 28.4 °F 93% - 10.0 mi North 10.4 mph - N/A   Overcast
3:15 PM 30.2 °F 19.8 °F 28.4 °F 93% 29.73 in 10.0 mi North 13.8 mph - N/A   Overcast
3:35 PM 30.2 °F 21.3 °F 28.4 °F 93% 29.76 in 10.0 mi North 10.4 mph - N/A   Overcast
3:53 PM 28.4 °F 16.6 °F 28.4 °F 100% 29.77 in 3.0 mi North 16.1 mph 21.9 mph N/A   Overcast
4:15 PM 28.4 °F 18.5 °F 26.6 °F 93% 29.79 in 3.0 mi North 11.5 mph 19.6 mph N/A   Overcast
4:35 PM 28.4 °F 17.5 °F 26.6 °F 93% 29.80 in 2.5 mi North 13.8 mph 18.4 mph N/A Snow Light Snow
4:53 PM 24.8 °F 9.6 °F 23.0 °F 93% 29.82 in 2.0 mi North 23.0 mph 32.2 mph N/A Snow Light Snow
5:14 PM 21.2 °F 5.2 °F 19.4 °F 93% 29.86 in 3.0 mi North 21.9 mph 31.1 mph N/A   Overcast
5:35 PM 19.4 °F 2.8 °F 17.6 °F 93% 29.88 in 4.0 mi North 21.9 mph 29.9 mph N/A   Overcast
5:53 PM 17.6 °F -0.3 °F 15.8 °F 93% 29.91 in 7.0 mi North 24.2 mph 27.6 mph N/A   Overcast
6:15 PM 14.0 °F -3.4 °F 10.4 °F 86% 29.93 in 7.0 mi North 19.6 mph 29.9 mph N/A   Overcast
6:35 PM 12.2 °F -7.1 °F 8.6 °F 85% 29.95 in 10.0 mi North 23.0 mph 28.8 mph N/A   Overcast
6:53 PM 12.2 °F -7.5 °F 6.8 °F 79% 29.97 in 10.0 mi North 24.2 mph 33.4 mph N/A   Overcast
7:15 PM 10.4 °F -7.7 °F 6.8 °F 85% 29.99 in 10.0 mi North 18.4 mph 25.3 mph N/A   Overcast
7:34 PM 8.6 °F -10.0 °F 3.2 °F 79% 30.01 in 10.0 mi North 18.4 mph 26.5 mph N/A   Overcast
7:53 PM 8.6 °F -9.5 °F 3.2 °F 79% 30.03 in 10.0 mi North 17.3 mph 25.3 mph N/A   Overcast
8:15 PM 8.6 °F -11.0 °F 3.2 °F 79% 30.04 in 10.0 mi North 20.7 mph 25.3 mph N/A   Overcast
8:34 PM 8.6 °F -9.5 °F 1.4 °F 73% 30.06 in 10.0 mi North 17.3 mph 23.0 mph N/A   Overcast
8:53 PM 6.8 °F -12.9 °F 1.4 °F 79% 30.07 in 10.0 mi North 19.6 mph 28.8 mph N/A   Overcast
9:15 PM 6.8 °F -12.9 °F -0.4 °F 72% 30.09 in 10.0 mi NNW 19.6 mph 28.8 mph N/A   Overcast
9:35 PM 5.0 °F -13.6 °F -0.4 °F 78% 30.10 in 10.0 mi North 16.1 mph 20.7 mph N/A   Scattered Clouds
9:53 PM 3.2 °F -15.9 °F -2.2 °F 78% 30.11 in 10.0 mi North 16.1 mph 24.2 mph N/A   Mostly Cloudy
10:15 PM 3.2 °F -17.1 °F -2.2 °F 78% 30.12 in 10.0 mi North 18.4 mph 26.5 mph N/A   Overcast
10:35 PM 3.2 °F -15.3 °F -2.2 °F 78% 30.13 in 10.0 mi North 15.0 mph 18.4 mph N/A   Overcast
10:52 PM 1.4 °F -20.5 °F -2.2 °F 85% 30.14 in 10.0 mi NNW 20.7 mph 25.3 mph N/A   Scattered Clouds
11:14 PM 1.4 °F -19.4 °F -4.0 °F 78% 30.15 in 10.0 mi NNW 18.4 mph - N/A   Clear
11:35 PM 1.4 °F -19.9 °F -4.0 °F 78% 30.16 in 10.0 mi NNW 19.6 mph 24.2 mph N/A   Scattered Clouds
11:53 PM -0.4 °F -21.7 °F -5.8 °F 78% 30.18 in 10.0 mi NNW 18.4 mph 25.3 mph N/A   Mostly Cloudy